[Date Prev][Date Next][Thread Prev][Thread Next] - [Date Index][Thread Index][Author Index]
2 Line ISS Keps 1-4
- Subject: [sarex] 2 Line ISS Keps 1-4
- From: "Dave Larsen PhD" <doc@xxxxxxxxxxx>
- Date: Sun, 4 Jan 2004 01:40:24 -0800
ISS
1 25544U 98067A 04004.17725495 .00022144 00000-0 21387-3 0 9669
2 25544 51.6302 85.3150 0006590 339.3308 110.6023 15.66360261292439
----
Via the sarex mailing list at AMSAT.ORG courtesy of AMSAT-NA.
To unsubscribe, send "unsubscribe sarex" to Majordomo@amsat.org
AMSAT Home